This demonstration page uses our WeatherBlox Daily Observations layout. Learn more.

Hourly Observations for January 27, 2015

Temp ( °F °C ) Dew Point ( °F °C ) Humidity (%) Winds ( mph kmh ) Pressure ( in mb ) Visibility ( mi km ) Precip ( " mm )
12:15 am 00:15 Clear 33 0.5 25 -3.7 74 74 W 3 6 30.18 1022 10 16.0934 0 0
12:35 am 00:35 Clear 32 0 25 -4.1 74 74 W 5 7 30.21 1023 10 16.0934 0 0
12:55 am 00:55 Clear 36 2.1 26 -3.2 68 68 Calm 30.15 1021 10 16.0934 0 0
1:15 am 01:15 Clear 33 0.4 24 -4.3 71 71 W 3 6 30.18 1022 10 16.0934 0 0
1:35 am 01:35 Clear 34 1.1 26 -3.5 72 72 Calm 30.15 1021 10 16.0934 0 0
1:55 am 01:55 Clear 35 1.4 26 -3.3 71 71 Calm 30.15 1021 10 16.0934 0 0
2:15 am 02:15 Clear 35 1.5 26 -3.1 72 72 Calm 30.15 1021 10 16.0934 0 0
2:35 am 02:35 Clear 36 2.2 27 -2.6 71 71 WSW 3 6 30.15 1021 10 16.0934 0 0
2:55 am 02:55 Clear 36 2.2 27 -2.7 70 70 Calm 30.15 1021 10 16.0934 0 0
3:15 am 03:15 Clear 37 2.7 28 -2.1 71 71 SW 3 6 30.15 1021 10 16.0934 0 0
3:35 am 03:35 Clear 38 3.1 28 -2.1 69 69 SW 6 9 30.15 1021 10 16.0934 0 0
3:55 am 03:55 Clear 38 3.6 28 -2.1 67 67 SW 7 11 30.12 1020 10 16.0934 0 0
4:15 am 04:15 Clear 39 3.8 28 -2 66 66 SW 5 7 30.12 1020 10 16.0934 0 0
4:35 am 04:35 Clear 39 3.8 28 -2 66 66 SW 6 9 30.09 1019 10 16.0934 0 0
4:55 am 04:55 Clear 38 3.2 29 -1.6 71 71 SW 5 7 30.09 1019 10 16.0934 0 0
5:15 am 05:15 Clear 37 3 29 -1.7 72 72 SW 6 9 30.09 1019 10 16.0934 0 0
5:35 am 05:35 Clear 36 2.2 28 -2 74 74 Calm 30.12 1020 10 16.0934 0 0
5:55 am 05:55 Clear 34 1.3 28 -2.3 77 77 WSW 3 6 30.12 1020 10 16.0934 0 0
6:15 am 06:15 Clear 35 1.6 28 -2.4 75 75 Calm 30.12 1020 10 16.0934 0 0
6:35 am 06:35 Clear 32 0.1 27 -2.8 81 81 SW 3 6 30.12 1020 10 16.0934 0 0
6:55 am 06:55 Clear 31 -0.7 26 -3.6 81 81 WSW 5 7 30.15 1021 10 16.0934 0 0
7:15 am 07:15 Clear 34 0.9 28 -2.2 80 80 WSW 6 9 30.12 1020 10 16.0934 0 0
7:35 am 07:35 Clear 33 0.7 28 -2.3 81 81 WSW 3 6 30.12 1020 10 16.0934 0 0
7:55 am 07:55 Sunny 35 1.4 28 -2.4 76 76 WSW 3 6 30.12 1020 10 16.0934 0 0
8:15 am 08:15 Sunny 35 1.8 28 -2.3 75 75 WSW 3 6 30.12 1020 10 16.0934 0 0
8:35 am 08:35 Sunny 37 2.7 29 -1.7 73 73 WSW 6 9 30.09 1019 10 16.0934 0 0
8:55 am 08:55 Sunny 39 3.8 30 -1.2 70 70 Calm 30.09 1019 10 16.0934 0 0
9:15 am 09:15 Sunny 40 4.7 30 -0.9 67 67 SW 5 7 30.09 1019 10 16.0934 0 0
9:35 am 09:35 Sunny 45 7.1 31 -0.4 59 59 WSW 9 15 30.06 1018 10 16.0934 0 0
9:55 am 09:55 Sunny 45 7.2 31 -0.5 58 58 WSW 10 17 30.06 1018 10 16.0934 0 0
10:15 am 10:15 Sunny 47 8.1 31 -0.5 55 55 WSW 8 13 30.06 1018 10 16.0934 0 0
10:35 am 10:35 Sunny 49 9.2 31 -0.5 51 51 WSW 6 9 30.06 1018 10 16.0934 0 0
10:55 am 10:55 Sunny 50 9.9 31 -0.3 49 49 W 7 11 30.03 1017 10 16.0934 0 0
11:15 am 11:15 Sunny 52 11.1 31 -0.3 46 46 WSW 5 7 30.03 1017 10 16.0934 0 0
11:35 am 11:35 Sunny 53 11.8 31 -0.5 43 43 WSW 3 6 30.03 1017 10 16.0934 0 0
11:55 am 11:55 Sunny 55 13 31 -0.7 39 39 Calm 30 1016 10 16.0934 0 0
12:15 pm 12:15 Sunny 57 13.7 31 -0.7 37 37 W 3 6 29.97 1015 10 16.0934 0 0
12:35 pm 12:35 Sunny 58 14.5 31 -0.7 35 35 SW 3 6 29.97 1015 10 16.0934 0 0
12:55 pm 12:55 Sunny 60 15.4 31 -0.5 34 34 SW 3 6 29.97 1015 10 16.0934 0 0
1:15 pm 13:15 Sunny 61 16.3 30 -0.9 31 31 WSW 5 7 29.91 1013 10 16.0934 0 0
1:35 pm 13:35 Sunny 63 17.3 31 -0.6 30 30 SW 7 11 29.91 1013 10 16.0934 0 0
1:55 pm 13:55 Sunny 64 17.8 31 -0.6 29 29 WSW 7 11 29.91 1013 10 16.0934 0 0
2:15 pm 14:15 Sunny 65 18.2 31 -0.6 28 28 SW 8 13 29.91 1013 10 16.0934 0 0
2:35 pm 14:35 Sunny 65 18.5 31 -0.8 27 27 W 9 15 29.91 1013 10 16.0934 0 0
2:55 pm 14:55 Sunny 65 18.6 30 -1.2 26 26 SW 7 11 29.85 1011 10 16.0934 0 0
3:15 pm 15:15 Sunny 66 19 30 -1 26 26 WSW 6 9 29.85 1011 10 16.0934 0 0
3:35 pm 15:35 Sunny 67 19.2 30 -0.9 26 26 WSW 5 7 29.85 1011 10 16.0934 0 0
3:55 pm 15:55 Sunny 67 19.3 30 -1 26 26 SW 3 6 29.85 1011 10 16.0934 0 0
4:15 pm 16:15 Sunny 67 19.4 30 -0.9 26 26 Calm 29.85 1011 10 16.0934 0 0
4:35 pm 16:35 Sunny 67 19.3 31 -0.7 26 26 SW 3 6 29.85 1011 10 16.0934 0 0
4:55 pm 16:55 Sunny 66 18.9 31 -0.7 27 27 SW 3 6 29.85 1011 10 16.0934 0 0
5:15 pm 17:15 Sunny 65 18.4 31 -0.8 27 27 Calm 29.88 1012 10 16.0934 0 0
5:35 pm 17:35 Sunny 63 17.2 30 -0.9 29 29 Calm 29.88 1012 10 16.0934 0 0
5:55 pm 17:55 Clear 58 14.6 30 -1.2 34 34 SSE 3 6 29.91 1013 10 16.0934 0 0
6:15 pm 18:15 Clear 51 10.8 30 -0.9 45 45 S 3 6 29.94 1014 7 11.26538 0 0
6:35 pm 18:35 Clear 50 10.2 30 -0.9 46 46 SSE 6 9 29.94 1014 10 16.0934 0 0
6:55 pm 18:55 Clear 53 11.5 30 -1.1 42 42 SE 6 9 29.91 1013 10 16.0934 0 0
7:15 pm 19:15 Clear 49 9.6 29 -1.5 46 46 SE 6 9 29.94 1014 10 16.0934 0 0
7:35 pm 19:35 Clear 47 8.4 29 -1.9 49 49 SSE 5 7 29.97 1015 10 16.0934 0 0
7:55 pm 19:55 Clear 44 6.5 29 -1.7 56 56 SE 5 7 29.97 1015 10 16.0934 0 0
8:15 pm 20:15 Clear 45 7.3 28 -2 52 52 SE 6 9 29.97 1015 10 16.0934 0 0
8:35 pm 20:35 Clear 42 5.4 27 -2.6 57 57 SSE 8 13 30 1016 10 16.0934 0 0
8:55 pm 20:55 Clear 44 6.6 29 -1.6 56 56 SSE 8 13 29.94 1014 10 16.0934 0 0
9:15 pm 21:15 Clear 45 7 29 -1.5 55 55 S 6 9 29.94 1014 10 16.0934 0 0
9:35 pm 21:35 Clear 45 7 29 -1.5 55 55 S 6 9 29.94 1014 10 16.0934 0 0
9:55 pm 21:55 Clear 42 5.7 29 -1.6 60 60 S 6 9 29.94 1014 10 16.0934 0 0
10:15 pm 22:15 Clear 42 5.3 29 -1.9 60 60 S 5 7 29.97 1015 10 16.0934 0 0
10:35 pm 22:35 Clear 40 4.3 29 -1.6 66 66 S 6 9 29.97 1015 10 16.0934 0 0
10:55 pm 22:55 Clear 39 3.9 29 -1.8 67 67 SSE 6 9 29.97 1015 10 16.0934 0 0
11:15 pm 23:15 Clear 40 4.5 29 -1.6 65 65 SE 6 9 29.91 1013 10 16.0934 0 0
11:35 pm 23:35 Clear 41 5 29 -1.5 63 63 SSE 3 6 29.97 1015 10 16.0934 0 0
11:55 pm 23:55 Clear 40 4.5 29 -1.5 65 65 SSE 3 6 29.97 1015 10 16.0934 0 0

Powered by AerisWeather